FW8606 Weather Reports


time (UTC)temp
F
wind
direction
speed
knots
gust
knots
rain 1hr
in
rain 24hr
in
rain mn
in
humidity
%
barometer
mb
20260905224555 94 288 2.6 4.3 0.00 0.00 0.00 49 1011.7
20260905224055 95 291 0.9 0.9 0.00 0.00 0.00 46 1011.3
20260905223553 95 287 0.0 0.9 0.00 0.00 0.00 47 1011.7
20260905223049 95 287 0.0 0.0 0.00 0.00 0.00 47 1011.7
20260905222548 96 297 0.9 0.9 0.00 0.00 0.00 45 1011.3
20260905222044 96 287 0.0 0.9 0.00 0.00 0.00 44 1011.3
20260905221540 96 309 0.9 0.9 0.00 0.00 0.00 43 1011.7
20260905221036 97 324 1.7 2.6 0.00 0.00 0.00 41 1011.3
20260905220531 98 324 1.7 2.6 0.00 0.00 0.00 41 1011.3
20260905220027 98 266 1.7 2.6 0.00 0.00 0.00 39 1011.3
20260905215526 98 269 2.6 3.5 0.00 0.00 0.00 39 1011.3
20260905215023 99 315 4.3 6.1 0.00 0.00 0.00 41 1011.3
20260905214518 100 224 2.6 2.6 0.00 0.00 0.00 39 1011.3
20260905214014 100 325 1.7 2.6 0.00 0.00 0.00 39 1011.3
20260905213509 99 288 2.6 2.6 0.00 0.00 0.00 38 1011.3
20260905213004 100 249 3.5 4.3 0.00 0.00 0.00 38 1011.3
20260905212459 101 244 1.7 2.6 0.00 0.00 0.00 37 1011.3
20260905211958 100 319 0.0 0.9 0.00 0.00 0.00 37 1011.3
20260905211454 100 248 2.6 3.5 0.00 0.00 0.00 38 1011.3
20260905210949 101 293 2.6 4.3 0.00 0.00 0.00 39 1011.7
20260905210445 100 220 2.6 3.5 0.00 0.00 0.00 38 1011.7
20260905205944 100 200 2.6 3.5 0.00 0.00 0.00 39 1011.7
20260905205439 100 271 0.9 0.9 0.00 0.00 0.00 38 1012.0
20260905204937 100 272 1.7 2.6 0.00 0.00 0.00 38 1012.0
20260905204434 100 272 0.9 0.9 0.00 0.00 0.00 38 1012.0
20260905203933 100 270 1.7 2.6 0.00 0.00 0.00 39 1012.0
20260905203428 100 316 4.3 4.3 0.00 0.00 0.00 41 1012.4
20260905202924 99 261 0.9 2.6 0.00 0.00 0.00 39 1012.4
20260905202419 98 315 0.9 0.9 0.00 0.00 0.00 42 1012.4
20260905201914 98 280 1.7 2.6 0.00 0.00 0.00 40 1012.4
20260905201410 99 255 4.3 4.3 0.00 0.00 0.00 40 1012.4
20260905200909 99 290 2.6 3.5 0.00 0.00 0.00 40 1012.4
20260905200405 101 261 3.5 4.3 0.00 0.00 0.00 39 1012.7
20260905195903 101 277 2.6 3.5 0.00 0.00 0.00 38 1012.7
20260905195359 100 303 1.7 2.6 0.00 0.00 0.00 41 1012.7
20260905194854 100 299 2.6 6.1 0.00 0.00 0.00 39 1012.7
20260905194354 99 318 0.0 0.0 0.00 0.00 0.00 40 1013.0
20260905193854 101 187 2.6 3.5 0.00 0.00 0.00 39 1012.7
20260905193348 100 300 1.7 3.5 0.00 0.00 0.00 41 1013.0
20260905192844 100 284 0.9 0.9 0.00 0.00 0.00 40 1013.0
20260905192340 100 244 1.7 3.5 0.00 0.00 0.00 41 1013.0
20260905191839 101 28 2.6 2.6 0.00 0.00 0.00 40 1013.0
20260905191337 99 296 1.7 3.5 0.00 0.00 0.00 40 1013.0
20260905190831 99 289 1.7 3.5 0.00 0.00 0.00 44 1013.0
20260905190331 99 304 4.3 6.1 0.00 0.00 0.00 43 1013.0
20260905185829 98 296 1.7 3.5 0.00 0.00 0.00 44 1013.5
20260905185325 99 255 2.6 3.5 0.00 0.00 0.00 42 1013.0
20260905184824 99 288 1.7 2.6 0.00 0.00 0.00 43 1013.5
20260905184323 99 225 2.6 2.6 0.00 0.00 0.00 42 1013.8
20260905183822 98 305 0.9 2.6 0.00 0.00 0.00 42 1013.8
20260905183318 98 336 2.6 3.5 0.00 0.00 0.00 43 1013.8
20260905182812 98 268 2.6 3.5 0.00 0.00 0.00 42 1013.8
20260905182312 99 292 2.6 3.5 0.00 0.00 0.00 44 1013.8
20260905181807 98 241 1.7 2.6 0.00 0.00 0.00 46 1013.8
20260905181306 98 284 2.6 3.5 0.00 0.00 0.00 44 1013.8
20260905180800 97 290 0.9 0.9 0.00 0.00 0.00 44 1014.2
20260905180255 98 250 1.7 2.6 0.00 0.00 0.00 46 1014.2
20260905175750 97 225 1.7 2.6 0.00 0.00 0.00 46 1013.8
20260905175245 96 323 0.9 0.9 0.00 0.00 0.00 47 1014.2
20260905174740 95 257 1.7 2.6 0.00 0.00 0.00 48 1014.2
20260905174236 96 289 0.9 0.9 0.00 0.00 0.00 48 1014.2
20260905173732 95 310 1.7 2.6 0.00 0.00 0.00 50 1014.5
20260905173227 95 302 0.9 0.9 0.00 0.00 0.00 49 1014.2
20260905172721 95 311 0.0 0.9 0.00 0.00 0.00 48 1014.5
20260905172221 96 312 1.7 2.6 0.00 0.00 0.00 47 1014.5
20260905171716 98 139 1.7 2.6 0.00 0.00 0.00 44 1014.8
20260905171212 97 293 2.6 3.5 0.00 0.00 0.00 43 1014.8
20260905170710 97 327 2.6 3.5 0.00 0.00 0.00 45 1014.8
20260905170210 96 302 0.0 0.9 0.00 0.00 0.00 49 1015.2
20260905165709 95 327 0.0 0.9 0.00 0.00 0.00 49 1014.8
20260905165205 94 335 2.6 2.6 0.00 0.00 0.00 52 1015.2
20260905164659 95 321 1.7 2.6 0.00 0.00 0.00 51 1015.2
20260905164159 95 341 0.0 0.0 0.00 0.00 0.00 50 1014.8
20260905163655 96 343 0.9 0.9 0.00 0.00 0.00 51 1015.2
20260905163151 97 296 0.9 0.9 0.00 0.00 0.00 50 1014.8
20260905162647 96 285 0.9 0.9 0.00 0.00 0.00 48 1015.2
20260905162146 95 298 0.9 0.9 0.00 0.00 0.00 51 1015.2
20260905161641 96 310 0.9 0.9 0.00 0.00 0.00 51 1014.8
20260905161139 95 353 1.7 2.6 0.00 0.00 0.00 52 1015.2
20260905160638 95 310 0.0 0.0 0.00 0.00 0.00 51 1015.2
20260905160132 95 327 1.7 2.6 0.00 0.00 0.00 52 1015.2
20260905155633 95 339 0.0 0.9 0.00 0.00 0.00 53 1015.2
20260905155131 96 26 0.0 0.9 0.00 0.00 0.00 51 1015.2
20260905154626 95 317 0.0 0.9 0.00 0.00 0.00 54 1015.5
20260905154122 95 334 3.5 3.5 0.00 0.00 0.00 53 1015.2
20260905153617 94 320 1.7 2.6 0.00 0.00 0.00 54 1015.5
20260905153112 95 322 0.0 0.9 0.00 0.00 0.00 54 1015.2
20260905152607 94 29 0.9 0.9 0.00 0.00 0.00 53 1015.2
20260905152102 95 290 0.0 0.9 0.00 0.00 0.00 54 1015.2
20260905151557 94 289 0.0 0.9 0.00 0.00 0.00 53 1015.5
20260905151052 92 299 0.0 0.0 0.00 0.00 0.00 57 1015.2
20260905150547 93 231 1.7 2.6 0.00 0.00 0.00 57 1015.5
20260905150045 91 299 0.0 0.0 0.00 0.00 0.00 60 1015.2
20260905145538 91 291 0.0 0.0 0.00 0.00 0.00 60 1015.8
20260905145038 91 295 0.9 0.9 0.00 0.00 0.00 61 1015.5
20260905144533 90 268 0.9 0.9 0.00 0.00 0.00 62 1015.2
20260905144032 90 319 0.0 0.0 0.00 0.00 0.00 64 1015.5
20260905143531 89 282 0.9 0.9 0.00 0.00 0.00 64 1015.2
20260905143027 90 274 0.9 0.9 0.00 0.00 0.00 63 1015.5
20260905142525 89 306 0.0 0.0 0.00 0.00 0.00 64 1015.5
20260905142021 88 325 1.7 2.6 0.00 0.00 0.00 68 1015.5
20260905141515 87 278 1.7 2.6 0.00 0.00 0.00 67 1015.5
20260905141012 87 312 0.9 0.9 0.00 0.00 0.00 66 1015.5
20260905140506 88 306 0.9 0.9 0.00 0.00 0.00 66 1015.5
20260905140005 87 332 0.0 0.0 0.00 0.00 0.00 68 1015.5
20260905135501 87 320 1.7 2.6 0.00 0.00 0.00 67 1015.8
20260905134956 87 294 0.9 0.9 0.00 0.00 0.00 66 1015.5
20260905134455 89 319 0.0 0.0 0.00 0.00 0.00 65 1015.5
20260905133954 86 319 0.0 0.0 0.00 0.00 0.00 70 1015.5
20260905133444 86 319 0.9 0.9 0.00 0.00 0.00 71 1015.8
20260905132943 85 319 0.0 0.0 0.00 0.00 0.00 74 1015.8
20260905132438 84 319 0.0 0.0 0.00 0.00 0.00 75 1015.8
20260905131933 84 315 0.9 0.9 0.00 0.00 0.00 74 1015.8
20260905131430 83 306 0.0 0.0 0.00 0.00 0.00 75 1015.5
20260905130929 83 330 0.0 0.0 0.00 0.00 0.00 79 1015.8
20260905130424 81 331 0.0 0.0 0.00 0.00 0.00 83 1015.8
20260905125923 81 344 0.0 0.0 0.00 0.00 0.00 88 1015.5
20260905125418 81 344 0.0 0.0 0.00 0.00 0.00 92 1015.5
20260905124914 80 345 0.0 0.0 0.00 0.00 0.00 92 1015.8
20260905124411 78 345 0.0 0.0 0.00 0.00 0.00 93 1015.8
20260905123910 77 345 0.0 0.0 0.00 0.00 0.00 93 1015.8
20260905123407 77 345 0.0 0.0 0.00 0.00 0.00 93 1015.8
20260905122902 77 345 0.0 0.0 0.00 0.00 0.00 93 1015.8
20260905122401 77 345 0.0 0.0 0.00 0.00 0.00 93 1015.8
20260905121857 76 345 0.0 0.0 0.00 0.00 0.00 93 1015.5
20260905121353 75 345 0.0 0.0 0.00 0.00 0.00 93 1015.5
20260905120852 75 346 0.0 0.0 0.00 0.00 0.00 93 1015.5
20260905120346 75 346 0.0 0.0 0.00 0.00 0.00 93 1015.5
20260905115842 74 346 0.0 0.0 0.00 0.00 0.00 93 1015.5
20260905115340 74 346 0.0 0.0 0.00 0.00 0.00 93 1015.2
20260905114835 74 346 0.0 0.0 0.00 0.00 0.00 93 1015.2
20260905114334 74 345 0.0 0.0 0.00 0.00 0.00 93 1015.2
20260905113834 74 345 0.0 0.0 0.00 0.00 0.00 93 1015.2
20260905113330 74 345 0.0 0.0 0.00 0.00 0.00 92 1015.2
20260905112825 74 345 0.0 0.0 0.00 0.00 0.00 92 1015.2
20260905112319 74 345 0.0 0.0 0.00 0.00 0.00 92 1015.2
20260905111815 74 345 0.0 0.0 0.00 0.00 0.00 92 1014.8
20260905111309 74 345 0.0 0.0 0.00 0.00 0.00 92 1014.8
20260905110808 74 345 0.0 0.0 0.00 0.00 0.00 92 1014.8
20260905110302 74 345 0.0 0.0 0.00 0.00 0.00 92 1014.8
20260905105758 74 345 0.0 0.0 0.00 0.00 0.00 92 1014.5
20260905105257 74 346 0.0 0.0 0.00 0.00 0.00 92 1014.8
20260905104751 75 346 0.0 0.0 0.00 0.00 0.00 92 1014.5
20260905104248 75 347 0.0 0.0 0.00 0.00 0.00 92 1014.5
20260905103747 75 347 0.0 0.0 0.00 0.00 0.00 92 1014.5
20260905103243 74 343 0.0 0.0 0.00 0.00 0.00 92 1014.8
20260905102738 75 343 0.0 0.0 0.00 0.00 0.00 92 1014.5
20260905102235 75 343 0.0 0.0 0.00 0.00 0.00 92 1014.5
20260905101734 75 340 0.0 0.0 0.00 0.00 0.00 92 1014.8
20260905101232 74 354 0.0 0.0 0.00 0.00 0.00 92 1014.5
20260905100728 75 354 0.0 0.0 0.00 0.00 0.00 92 1014.5
20260905100224 75 354 0.0 0.0 0.00 0.00 0.00 92 1014.5
20260905095724 75 354 0.0 0.0 0.00 0.00 0.00 92 1014.5
20260905095223 75 354 0.0 0.0 0.00 0.00 0.00 92 1014.2
20260905094718 75 354 0.0 0.0 0.00 0.00 0.00 92 1014.2
20260905094213 75 354 0.0 0.0 0.00 0.00 0.00 92 1014.5
20260905093707 75 0 0.0 0.0 0.00 0.00 0.00 92 1014.2
20260905093203 75 306 0.0 0.9 0.00 0.00 0.00 92 1014.5
20260905092659 75 305 0.0 0.0 0.00 0.00 0.00 92 1014.2
20260905092154 75 306 0.0 0.0 0.00 0.00 0.00 92 1014.2
20260905091653 75 306 0.0 0.0 0.00 0.00 0.00 92 1014.5
20260905091148 75 306 0.0 0.0 0.00 0.00 0.00 91 1014.2
20260905090648 75 306 0.0 0.0 0.00 0.00 0.00 91 1014.5
20260905090144 75 306 0.0 0.0 0.00 0.00 0.00 91 1014.2
20260905085642 75 306 0.0 0.0 0.00 0.00 0.00 91 1014.2
20260905085137 75 306 0.0 0.0 0.00 0.00 0.00 91 1014.2
20260905084637 75 306 0.0 0.0 0.00 0.00 0.00 91 1014.2
20260905084132 75 306 0.0 0.0 0.00 0.00 0.00 91 1014.2
20260905083626 75 306 0.0 0.0 0.00 0.00 0.00 91 1014.2
20260905083123 75 306 0.0 0.0 0.00 0.00 0.00 91 1013.8
20260905082618 76 306 0.0 0.0 0.00 0.00 0.00 91 1014.2
20260905082114 76 306 0.0 0.0 0.00 0.00 0.00 91 1014.2
20260905081614 76 306 0.0 0.0 0.00 0.00 0.00 91 1014.2
20260905081109 76 306 0.0 0.0 0.00 0.00 0.00 91 1014.5
20260905080609 76 306 0.0 0.0 0.00 0.00 0.00 90 1014.5
20260905075556 76 306 0.0 0.0 0.00 0.00 0.00 90 1014.5
20260905075051 76 306 0.0 0.0 0.00 0.00 0.00 90 1014.5
20260905074550 76 306 0.0 0.0 0.00 0.00 0.00 90 1014.5
20260905074046 76 306 0.0 0.0 0.00 0.00 0.00 90 1014.5
20260905073541 76 306 0.0 0.0 0.00 0.00 0.00 90 1014.2
20260905073037 76 306 0.0 0.0 0.00 0.00 0.00 90 1014.5
20260905072536 76 306 0.0 0.0 0.00 0.00 0.00 90 1014.5
20260905072032 76 306 0.0 0.0 0.00 0.00 0.00 90 1014.5
20260905071528 77 306 0.0 0.0 0.00 0.00 0.00 90 1014.5
20260905071028 77 306 0.0 0.0 0.00 0.00 0.00 90 1014.8
20260905070524 77 306 0.0 0.0 0.00 0.00 0.00 89 1014.5
20260905070020 77 306 0.0 0.0 0.00 0.00 0.00 89 1014.5
20260905065517 77 306 0.0 0.0 0.00 0.00 0.00 89 1014.5
20260905065013 77 306 0.0 0.0 0.00 0.00 0.00 89 1014.5
20260905064507 77 306 0.0 0.0 0.00 0.00 0.00 89 1014.5
20260905064002 77 306 0.0 0.0 0.00 0.00 0.00 89 1014.5
20260905063456 77 306 0.0 0.0 0.00 0.00 0.00 89 1014.8
20260905062953 77 306 0.0 0.0 0.00 0.00 0.00 88 1014.8
20260905062452 77 306 0.0 0.0 0.00 0.00 0.00 88 1014.8
20260905061948 77 306 0.0 0.0 0.00 0.00 0.00 88 1014.5
20260905061443 77 306 0.0 0.0 0.00 0.00 0.00 88 1014.8
20260905060942 77 306 0.0 0.0 0.00 0.00 0.00 88 1014.8
20260905060438 77 306 0.0 0.0 0.00 0.00 0.00 88 1014.8
20260905055937 78 306 0.0 0.0 0.00 0.00 0.00 87 1014.8
20260905055432 78 306 0.0 0.0 0.00 0.00 0.00 87 1014.5
20260905054932 78 306 0.0 0.0 0.00 0.00 0.00 87 1014.8
20260905054427 78 306 0.0 0.0 0.00 0.00 0.00 87 1014.8
20260905053927 78 306 0.0 0.0 0.00 0.00 0.00 87 1014.8
20260905053422 79 306 0.0 0.0 0.00 0.00 0.00 86 1014.8
20260905052918 79 306 0.0 0.0 0.00 0.00 0.00 86 1014.8
20260905052417 79 306 0.0 0.0 0.00 0.00 0.00 85 1014.8
20260905051916 79 306 0.0 0.0 0.00 0.00 0.00 85 1014.8
20260905051413 79 306 0.0 0.0 0.00 0.00 0.00 85 1014.8
20260905050910 79 306 0.0 0.0 0.00 0.00 0.00 85 1014.8
20260905050405 79 305 0.0 0.0 0.00 0.00 0.00 85 1014.8
20260905045901 79 305 0.0 0.0 0.00 0.00 0.00 85 1014.8
20260905045356 79 306 0.0 0.0 0.00 0.00 0.00 85 1014.8
20260905044851 78 306 0.0 0.0 0.00 0.00 0.00 85 1014.8
20260905044346 79 306 0.0 0.0 0.00 0.00 0.00 84 1014.8
20260905043845 79 306 0.0 0.0 0.00 0.00 0.00 84 1014.8
20260905043339 79 306 0.0 0.0 0.00 0.00 0.00 84 1015.2
20260905042835 79 306 0.0 0.0 0.00 0.00 0.00 84 1015.2
20260905042335 79 306 0.0 0.0 0.00 0.00 0.00 83 1015.2
20260905041829 79 306 0.0 0.0 0.00 0.00 0.00 83 1015.2
20260905041325 79 306 0.0 0.0 0.00 0.00 0.00 83 1015.2
20260905040820 80 306 0.0 0.0 0.00 0.00 0.00 83 1015.2
20260905040318 80 306 0.0 0.0 0.00 0.00 0.00 82 1015.2
20260905035813 80 306 0.0 0.0 0.00 0.00 0.00 82 1015.2
20260905035309 80 306 0.0 0.0 0.00 0.00 0.00 81 1015.2
20260905034805 80 306 0.0 0.0 0.00 0.00 0.00 81 1015.2
20260905034300 80 306 0.0 0.0 0.00 0.00 0.00 81 1015.2
20260905033759 80 306 0.0 0.0 0.00 0.00 0.00 82 1015.2
20260905033254 80 306 0.0 0.0 0.00 0.00 0.00 81 1015.2
20260905032754 80 306 0.0 0.0 0.00 0.00 0.00 80 1015.2
20260905032249 80 306 0.0 0.0 0.00 0.00 0.00 80 1015.2
20260905031744 81 306 0.0 0.0 0.00 0.00 0.00 80 1015.2
20260905031240 81 306 0.0 0.0 0.00 0.00 0.00 80 1015.2
20260905030735 81 306 0.0 0.0 0.00 0.00 0.00 79 1015.2
20260905030230 81 306 0.0 0.0 0.00 0.00 0.00 79 1015.2
20260905025725 81 306 0.0 0.0 0.00 0.00 0.00 78 1015.2
20260905025220 82 306 0.0 0.0 0.00 0.00 0.00 78 1014.8
20260905024716 82 305 0.0 0.0 0.00 0.00 0.00 77 1015.2
20260905024212 82 286 0.0 0.0 0.00 0.00 0.00 77 1015.2
20260905023706 82 285 0.0 0.0 0.00 0.00 0.00 76 1015.2
20260905023206 82 285 0.0 0.0 0.00 0.00 0.00 76 1015.2
20260905022705 82 285 0.0 0.0 0.00 0.00 0.00 76 1015.2
20260905022201 83 285 0.0 0.0 0.00 0.00 0.00 75 1014.8
20260905021701 83 286 0.0 0.0 0.00 0.00 0.00 74 1014.8
20260905021156 83 285 0.0 0.0 0.00 0.00 0.00 74 1014.8
20260905020651 83 285 0.0 0.0 0.00 0.00 0.00 74 1014.8
20260905020146 84 285 0.0 0.9 0.00 0.00 0.00 73 1015.2
20260905015645 84 285 0.0 0.0 0.00 0.00 0.00 72 1014.8
20260905015139 84 285 0.0 0.0 0.00 0.00 0.00 72 1015.2
20260905014632 84 285 0.0 0.0 0.00 0.00 0.00 71 1014.8
20260905014128 84 285 0.0 0.0 0.00 0.00 0.00 71 1014.8
20260905013625 85 285 0.0 0.0 0.00 0.00 0.00 71 1014.8
20260905013121 85 285 0.0 0.0 0.00 0.00 0.00 70 1014.5
20260905012621 85 285 0.0 0.0 0.00 0.00 0.00 69 1014.8
20260905012117 86 285 0.0 0.0 0.00 0.00 0.00 69 1014.8
20260905011613 86 285 0.0 0.0 0.00 0.00 0.00 69 1014.5
20260905011109 86 285 0.0 0.0 0.00 0.00 0.00 69 1014.5
20260905010609 86 285 0.0 0.0 0.00 0.00 0.00 68 1014.5
20260905010105 86 285 0.0 0.0 0.00 0.00 0.00 67 1014.5
20260905005600 86 285 0.0 0.0 0.00 0.00 0.00 67 1014.2
20260905005055 87 285 0.0 0.0 0.00 0.00 0.00 66 1014.2
20260905004550 86 285 0.0 0.0 0.00 0.00 0.00 65 1014.2
20260905004045 87 285 0.0 0.0 0.00 0.00 0.00 64 1014.2
20260905003541 87 285 0.0 0.0 0.00 0.00 0.00 63 1014.2
20260905003036 87 285 0.0 0.0 0.00 0.00 0.00 63 1014.2
20260905002532 88 285 0.0 0.0 0.00 0.00 0.00 61 1014.2
20260905002032 89 285 0.0 0.0 0.00 0.00 0.00 60 1014.2
20260905001527 89 285 0.0 0.0 0.00 0.00 0.00 59 1014.2
20260905001020 90 285 0.0 0.0 0.00 0.00 0.00 59 1013.8
20260905000516 91 285 0.0 0.0 0.00 0.00 0.00 59 1014.2
20260905000013 92 285 0.0 0.0 0.00 0.00 0.00 55 1014.2
20260904235507 92 285 0.0 0.0 0.00 0.00 0.00 53 1014.2
20260904235006 93 285 0.0 0.0 0.00 0.00 0.00 53 1014.2
20260904234501 94 285 0.0 0.0 0.00 0.00 0.00 52 1014.2
20260904233957 95 285 0.0 0.0 0.00 0.00 0.00 51 1014.2
20260904233452 95 285 0.0 0.0 0.00 0.00 0.00 48 1014.2
20260904232948 95 285 0.0 0.9 0.00 0.00 0.00 47 1014.2
20260904232444 96 285 0.0 0.9 0.00 0.00 0.00 45 1013.8
20260904231940 96 284 0.0 0.9 0.00 0.00 0.00 44 1014.2
20260904231435 96 285 0.9 0.9 0.00 0.00 0.00 42 1013.8
20260904230931 97 286 0.9 0.9 0.00 0.00 0.00 43 1013.8
20260904230429 97 286 0.0 0.9 0.00 0.00 0.00 42 1013.8
20260904225925 97 296 0.9 0.9 0.00 0.00 0.00 42 1013.8
20260904225423 98 289 0.9 0.9 0.00 0.00 0.00 39 1014.2
20260904224917 98 292 0.0 0.9 0.00 0.00 0.00 39 1013.8